Change the Weather History Date:

Sunday, June 9, 2013

  Actual Average Record
Temperature  
Mean Temperature 61 °F -  
Max Temperature 75 °F 70 °F 82 °F (2005)
Min Temperature 47 °F 52 °F 43 °F (2014)
Degree Days  
Heating Degree Days 4    
Growing Degree Days 11 (Base 50)    
Moisture  
Dew Point 51 °F    
Average Humidity 67    
Maximum Humidity 96    
Minimum Humidity 46    
Precipitation  
Precipitation 0.00 in - - ()
Sea Level Pressure  
Sea Level Pressure 30.09 in    
Wind  
Wind Speed 5 mph (ESE)    
Max Wind Speed 14 mph    
Max Gust Speed 18 mph    
Visibility 10 miles    
Events      
Averages and records for this station are not official NWS values.
T = Trace of Precipitation, MM = Missing Value Source: NWS Daily Summary

Daily Weather History Graph

Daily Weather History Graph

Search for Another Location

Airport or City:

Trip Planner

Search our weather history database for the weather conditions in past years. The results will help you decide how hot, cold, wet, or windy it might be!

Date:

Astronomy

Jun. 09, 2013 Rise Set
Actual Time 5:53 AM EDT 9:27 PM EDT
Civil Twilight 5:15 AM EDT 10:05 PM EDT
Nautical Twilight 4:26 AM EDT 10:55 PM EDT
Astronomical Twilight 3:21 AM EDT 12:00 AM EDT
Moon 6:52 AM EDT (6/9) 10:10 PM EDT (6/9)
Length of Visible Light 16h 49m
Length of Day
15h 34m
New Moon, 1% of the Moon is Illuminated
Jun 9
New Moon
Jun 16
First Quarter
Jun 23
Full
Jun 30
Last Quarter
Jul 8
New

Hourly Weather History & Observations

Time (EDT) Temp. Dew Point Humidity Pressure Visibility Wind Dir Wind Speed Gust Speed Precip Events Conditions
12:15 AM 49.6 °F 46.6 °F 89% 30.10 in 10.0 mi Calm Calm - N/A   Clear
12:34 AM 48.6 °F 45.9 °F 90% 30.10 in 10.0 mi Calm Calm - N/A   Clear
12:54 AM 50.9 °F 46.2 °F 84% 30.10 in 10.0 mi Calm Calm - N/A   Clear
1:14 AM 49.8 °F 45.7 °F 86% 30.10 in 10.0 mi Calm Calm - N/A   Clear
1:34 AM 49.5 °F 45.7 °F 87% 30.10 in 10.0 mi Calm Calm - N/A   Clear
1:55 AM 50.0 °F 45.3 °F 84% 30.11 in 10.0 mi ESE 3.5 mph - N/A   Clear
2:14 AM 48.4 °F 45.1 °F 89% 30.11 in 10.0 mi Calm Calm - N/A   Clear
2:34 AM 49.5 °F 45.9 °F 87% 30.12 in 10.0 mi ESE 4.6 mph - N/A   Clear
2:55 AM 50.0 °F 45.5 °F 85% 30.12 in 10.0 mi ESE 3.5 mph - N/A   Clear
3:14 AM 48.7 °F 45.3 °F 88% 30.12 in 10.0 mi SE 3.5 mph - N/A   Clear
3:34 AM 49.3 °F 45.3 °F 86% 30.12 in 10.0 mi SE 4.6 mph - N/A   Clear
3:55 AM 48.7 °F 45.0 °F 87% 30.12 in 10.0 mi SE 4.6 mph - N/A   Clear
4:14 AM 48.7 °F 44.8 °F 86% 30.12 in 10.0 mi SE 3.5 mph - N/A   Clear
4:34 AM 47.5 °F 44.6 °F 90% 30.13 in 10.0 mi SE 3.5 mph - N/A   Clear
4:55 AM 47.3 °F 44.6 °F 90% 30.13 in 10.0 mi ESE 3.5 mph - N/A   Clear
5:14 AM 48.0 °F 45.5 °F 91% 30.13 in 10.0 mi SE 3.5 mph - N/A   Clear
5:35 AM 48.2 °F 45.7 °F 91% 30.13 in 10.0 mi ESE 4.6 mph - N/A   Clear
5:54 AM 47.3 °F 45.5 °F 93% 30.13 in 10.0 mi SE 4.6 mph - N/A   Clear
6:14 AM 47.7 °F 46.6 °F 96% 30.14 in 10.0 mi SE 4.6 mph - N/A   Clear
6:35 AM 48.9 °F 47.5 °F 95% 30.14 in 10.0 mi SE 4.6 mph - N/A   Clear
6:54 AM 50.2 °F 48.4 °F 94% 30.14 in 10.0 mi SE 4.6 mph - N/A   Clear
7:14 AM 51.8 °F 49.1 °F 90% 30.15 in 10.0 mi ESE 5.8 mph - N/A   Clear
7:35 AM 54.1 °F 50.0 °F 86% 30.15 in 10.0 mi ESE 4.6 mph - N/A   Clear
7:54 AM 54.7 °F 49.5 °F 83% 30.15 in 10.0 mi ESE 5.8 mph - N/A   Clear
8:14 AM 55.8 °F 50.9 °F 84% 30.15 in 10.0 mi East 5.8 mph - N/A   Clear
8:35 AM 58.3 °F 52.0 °F 80% 30.15 in 10.0 mi East 5.8 mph - N/A   Clear
8:54 AM 58.3 °F 51.1 °F 77% 30.15 in 10.0 mi East 5.8 mph - N/A   Clear
9:14 AM 59.7 °F 51.6 °F 75% 30.15 in 10.0 mi ESE 8.1 mph - N/A   Clear
9:35 AM 61.7 °F 51.4 °F 69% 30.14 in 10.0 mi ESE 9.2 mph - N/A   Clear
9:54 AM 62.8 °F 52.3 °F 69% 30.14 in 10.0 mi East 6.9 mph - N/A   Clear
10:14 AM 64.4 °F 53.1 °F 67% 30.14 in 10.0 mi East 6.9 mph - N/A   Clear
10:35 AM 66.0 °F 54.1 °F 65% 30.13 in 10.0 mi East 6.9 mph - N/A   Clear
10:54 AM 66.7 °F 53.2 °F 62% 30.12 in 10.0 mi East 9.2 mph - N/A   Clear
11:15 AM 69.3 °F 53.6 °F 57% 30.12 in 10.0 mi ESE 9.2 mph - N/A   Clear
11:34 AM 70.5 °F 52.9 °F 54% 30.12 in 10.0 mi ESE 9.2 mph - N/A   Clear
11:54 AM 71.1 °F 51.6 °F 50% 30.12 in 10.0 mi East 10.4 mph - N/A   Clear
12:15 PM 72.0 °F 51.3 °F 48% 30.12 in 10.0 mi East 10.4 mph - N/A   Scattered Clouds
12:34 PM 72.9 °F 51.6 °F 47% 30.12 in 10.0 mi East 8.1 mph - N/A   Scattered Clouds
12:54 PM 72.0 °F 50.4 °F 46% 30.11 in 10.0 mi East 11.5 mph 16.1 mph N/A   Clear
1:15 PM 72.5 °F 51.8 °F 48% 30.10 in 10.0 mi ESE 9.2 mph - N/A   Scattered Clouds
1:34 PM 73.6 °F 53.4 °F 49% 30.10 in 10.0 mi East 8.1 mph - N/A   Scattered Clouds
1:54 PM 73.8 °F 52.3 °F 47% 30.09 in 10.0 mi East 8.1 mph - N/A   Scattered Clouds
2:15 PM 74.7 °F 53.8 °F 48% 30.09 in 10.0 mi SE 9.2 mph 16.1 mph N/A   Mostly Cloudy
2:34 PM 74.3 °F 54.3 °F 50% 30.08 in 10.0 mi ESE 10.4 mph - N/A   Scattered Clouds
2:54 PM 75.0 °F 55.0 °F 50% 30.08 in 10.0 mi SE 13.8 mph 18.4 mph N/A   Clear
3:15 PM 73.9 °F 54.0 °F 50% 30.07 in 10.0 mi SSE 9.2 mph - N/A   Clear
3:34 PM 74.8 °F 54.1 °F 48% 30.07 in 10.0 mi East 8.1 mph - N/A   Clear
3:54 PM 73.8 °F 54.3 °F 51% 30.06 in 10.0 mi East 9.2 mph - N/A   Clear
4:14 PM 73.9 °F 54.5 °F 51% 30.06 in 10.0 mi ESE 8.1 mph - N/A   Clear
4:34 PM 73.4 °F 55.2 °F 53% 30.05 in 10.0 mi East 9.2 mph - N/A   Scattered Clouds
4:55 PM 73.4 °F 55.6 °F 54% 30.05 in 10.0 mi East 6.9 mph - N/A   Scattered Clouds
5:14 PM 72.7 °F 55.6 °F 55% 30.05 in 10.0 mi ESE 10.4 mph - N/A   Scattered Clouds
5:34 PM 72.7 °F 55.6 °F 55% 30.03 in 10.0 mi East 9.2 mph 16.1 mph N/A   Clear
5:55 PM 74.8 °F 55.4 °F 51% 30.03 in 10.0 mi East 11.5 mph - N/A   Clear
6:14 PM 73.6 °F 55.0 °F 52% 30.03 in 10.0 mi ESE 10.4 mph - N/A   Clear
6:34 PM 72.3 °F 55.6 °F 56% 30.02 in 10.0 mi ESE 12.7 mph - N/A   Clear
6:54 PM 72.5 °F 54.5 °F 53% 30.02 in 10.0 mi ESE 10.4 mph - N/A   Clear
7:14 PM 72.1 °F 54.7 °F 54% 30.02 in 10.0 mi ESE 9.2 mph - N/A   Clear
7:35 PM 71.8 °F 54.5 °F 54% 30.02 in 10.0 mi ESE 8.1 mph - N/A   Mostly Cloudy
7:54 PM 71.4 °F 54.5 °F 55% 30.02 in 10.0 mi ESE 8.1 mph - N/A   Overcast
8:14 PM 70.3 °F 55.0 °F 58% 30.02 in 10.0 mi ESE 8.1 mph - N/A   Overcast
8:35 PM 70.3 °F 55.2 °F 59% 30.03 in 10.0 mi East 8.1 mph - N/A   Overcast
8:54 PM 70.3 °F 55.0 °F 58% 30.02 in 10.0 mi ESE 9.2 mph - N/A   Overcast
9:14 PM 70.2 °F 54.7 °F 58% 30.02 in 10.0 mi East 9.2 mph - N/A   Overcast
9:35 PM 70.0 °F 54.3 °F 57% 30.02 in 10.0 mi ESE 8.1 mph - N/A   Overcast
9:54 PM 69.6 °F 53.8 °F 57% 30.02 in 10.0 mi ESE 9.2 mph - N/A   Overcast
10:14 PM 68.4 °F 53.6 °F 59% 30.03 in 10.0 mi ESE 9.2 mph - N/A   Overcast
10:35 PM 68.5 °F 52.2 °F 56% 30.03 in 10.0 mi ESE 10.4 mph - N/A   Overcast
10:54 PM 68.0 °F 52.0 °F 56% 30.03 in 10.0 mi ESE 9.2 mph - N/A   Overcast
11:14 PM 67.3 °F 51.8 °F 58% 30.03 in 10.0 mi ESE 8.1 mph - N/A   Overcast
11:34 PM 66.7 °F 51.3 °F 57% 30.02 in 10.0 mi East 9.2 mph - N/A   Overcast
11:54 PM 66.2 °F 51.3 °F 59% 30.02 in 10.0 mi ESE 10.4 mph - N/A   Overcast